Flag for Brazil Weather past 2 weeks in Manaus, Amazonas, Brazil

Now
75 °F

Clear.


Feels Like: 75 °F
Forecast: 74 / 85 °F
Wind: 3 mph from Southeast

Location: Manaus Aeroporto

Current Time: Jan 26, 2015 at 2:33:22 AM

Latest Report: Jan 26, 2015 at 2:00 AM


Visibility: 10 mi

Pressure: 29.86 "Hg

Humidity: 89%

Dew point: 72 °F

Location of ManausLocation

Historic Weather in Manaus — Graph

°F

Manaus temperature yesterday

Maximum temperature yesterday: 84 °F (at 12:00 PM)
Minimum temperature yesterday: 73 °F (at 12:00 AM)
Average temperature yesterday: 77 °F

Past Weeks' High & Low Weather Summary

 TemperatureHumidityPressure
High90 °F (Jan 16, 2:00 PM)100% (Jan 23, 11:00 AM)30.01 "Hg (Jan 23, 11:00 AM)
Low37 °F (Jan 23, 11:00 AM)55% (Jan 18, 3:00 PM)29.77 "Hg (Jan 13, 3:00 PM)
Average77 °F85%29.89 "Hg
* Reported Jan 11 2:00 AM — Jan 26 1:00 AM, Manaus, Weather by CustomWeather, © 2014

Note: Actual official high and low records may vary slightly from our data, if they occured in-between our weather recording intervals... More about our weather records

Advertising

Manaus weather history for previous 24 hours

 ConditionsComfort  
Time TempWeatherWind HumidityBarometerVisibility
1:00 AM
Jan 26
75 °FClear.2 mph83%29.86 "Hg10 mi
12:00 AM75 °FClear.No wind89%29.89 "Hg10 mi
11:00 PM
Jan 25
77 °FPassing clouds.2 mph89%29.89 "HgN/A
10:00 PM77 °FPassing clouds.2 mph89%29.89 "HgN/A
9:00 PM77 °FPartly cloudy.5 mph83%29.86 "HgN/A
8:00 PM77 °FPartly cloudy.2 mph89%29.86 "HgN/A
7:00 PM79 °FPassing clouds.3 mph84%29.80 "HgN/A
6:00 PM77 °FScattered clouds.1 mph89%29.80 "HgN/A
5:00 PM79 °FScattered clouds.6 mph79%29.80 "HgN/A
4:00 PM79 °FScattered clouds.5 mph84%29.80 "HgN/A
3:00 PM84 °FScattered clouds.7 mph66%29.80 "HgN/A
2:00 PM84 °FScattered clouds.10 mph66%29.86 "HgN/A
1:00 PM84 °FScattered clouds.9 mph66%29.89 "HgN/A
12:00 PM84 °FBroken clouds.9 mph70%29.92 "HgN/A
11:00 AM82 °FBroken clouds.7 mph74%29.92 "HgN/A
10:00 AM79 °FPartly sunny.7 mph79%29.95 "HgN/A
9:00 AM77 °FBroken clouds.6 mph83%29.95 "HgN/A
8:00 AM75 °FPartly sunny.3 mph83%29.92 "HgN/A
7:00 AM73 °FPartly sunny.3 mph89%29.89 "HgN/A
6:00 AM73 °FPassing clouds.3 mph89%29.89 "HgN/A
5:00 AM73 °FClear.No wind89%29.86 "Hg10 mi
4:00 AM73 °FClear.2 mph89%29.86 "Hg10 mi
3:00 AM73 °FClear.3 mph94%29.86 "Hg10 mi
2:00 AM73 °FClear.2 mph94%29.86 "Hg10 mi
Weather by CustomWeather, © 2014

See weather overviewHow to use our weather pages